GW4240 Weather Reports


Display with metric or nautical units.
time (UTC)temp
F
wind
direction
speed
MPH
gust
MPH
rain 1hr
in
rain 24hr
in
rain mn
in
humidity
%
barometer
mb
20260503041021 63 0 0.0 6.0 0.00 0.00 0.00 74 1013.8
20260503040521 63 67 0.0 3.0 0.00 0.00 0.00 74 1013.7
20260503040053 63 79 2.0 3.0 0.00 0.00 0.00 72 1013.7
20260503035521 64 70 0.0 1.0 0.00 0.00 0.00 69 1013.6
20260503035021 65 0 0.0 1.0 0.00 0.00 0.00 69 1013.6
20260503034544 65 0 0.0 1.0 0.00 0.00 0.00 63 1013.6
20260503034021 66 0 0.0 1.0 0.00 0.00 0.00 64 1013.5
20260503033522 66 0 0.0 1.0 0.00 0.00 0.00 61 1013.5
20260503033040 67 314 0.0 3.0 0.00 0.00 0.00 58 1013.5
20260503032521 67 315 1.0 5.0 0.00 0.00 0.00 58 1013.5
20260503032021 68 89 2.0 6.0 0.00 0.00 0.00 57 1013.4
20260503031537 68 348 3.0 6.0 0.00 0.00 0.00 56 1013.4
20260503031022 69 303 2.0 7.0 0.00 0.00 0.00 54 1013.4
20260503030521 69 322 3.0 7.0 0.00 0.00 0.00 56 1013.4
20260503030036 69 302 4.0 6.0 0.00 0.00 0.00 55 1013.4
20260503025522 69 250 2.0 5.0 0.00 0.00 0.00 54 1013.4
20260503025023 70 292 1.0 7.0 0.00 0.00 0.00 55 1013.3
20260503024543 70 319 2.0 7.0 0.00 0.00 0.00 54 1013.3
20260503024022 70 272 2.0 7.0 0.00 0.00 0.00 56 1013.3
20260503023522 70 301 2.0 4.0 0.00 0.00 0.00 55 1013.2
20260503023043 70 278 1.0 4.0 0.00 0.00 0.00 56 1013.3
20260503022521 70 241 1.0 5.0 0.00 0.00 0.00 56 1013.4
20260503022022 70 293 2.0 7.0 0.00 0.00 0.00 57 1013.3
20260503021550 70 306 3.0 8.0 0.00 0.00 0.00 57 1013.3
20260503021022 70 298 4.0 8.0 0.00 0.00 0.00 57 1013.3
20260503020522 70 305 5.0 8.0 0.00 0.00 0.00 56 1013.4
20260503020048 70 307 4.0 9.0 0.00 0.00 0.00 56 1013.3
20260503015521 70 296 5.0 9.0 0.00 0.00 0.00 56 1013.5
20260503015021 70 303 4.0 9.0 0.00 0.00 0.00 57 1013.5
20260503014537 70 305 4.0 9.0 0.00 0.00 0.00 57 1013.5
20260503014021 70 299 5.0 9.0 0.00 0.00 0.00 57 1013.5
20260503013521 70 276 5.0 11.0 0.00 0.00 0.00 56 1013.6
20260503013045 70 294 5.0 11.0 0.00 0.00 0.00 58 1013.6
20260503012521 70 340 5.0 11.0 0.00 0.00 0.00 59 1013.7
20260503012021 70 295 6.0 13.0 0.00 0.00 0.00 60 1013.6
20260503011545 70 295 7.0 13.0 0.00 0.00 0.00 59 1013.7
20260503011021 70 295 7.0 13.0 0.00 0.00 0.00 58 1013.8
20260503010521 70 276 6.0 11.0 0.00 0.00 0.00 58 1013.9
20260503010042 70 298 6.0 11.0 0.00 0.00 0.00 60 1013.8
20260503005523 70 286 6.0 12.0 0.00 0.00 0.00 61 1013.7
20260503005021 70 304 5.0 13.0 0.00 0.00 0.00 61 1013.9
20260503004555 70 293 8.0 14.0 0.00 0.00 0.00 60 1013.8
20260503004021 69 295 7.0 14.0 0.00 0.00 0.00 61 1014.0
20260503003520 70 302 8.0 13.0 0.00 0.00 0.00 60 1014.0
20260503003059 70 300 8.0 11.0 0.00 0.00 0.00 60 1014.0
20260503002521 70 301 5.0 14.0 0.00 0.00 0.00 60 1014.0
20260503002021 70 293 7.0 14.0 0.00 0.00 0.00 60 1014.1
20260503001542 70 319 6.0 14.0 0.00 0.00 0.00 60 1014.1
20260503001021 70 297 6.0 12.0 0.00 0.00 0.00 60 1014.2
20260503000521 70 295 7.0 12.0 0.00 0.00 0.00 60 1014.3
20260503000038 70 293 7.0 11.0 0.00 0.00 0.00 60 1014.3
20260502235521 70 307 4.0 13.0 0.00 0.00 0.00 61 1014.3
20260502235021 70 297 8.0 13.0 0.00 0.00 0.00 61 1014.4
20260502234544 70 287 6.0 13.0 0.00 0.00 0.00 61 1014.5
20260502234021 69 309 6.0 13.0 0.00 0.00 0.00 62 1014.4
20260502233522 69 307 6.0 13.0 0.00 0.00 0.00 62 1014.5
20260502233041 69 286 6.0 13.0 0.00 0.00 0.00 63 1014.6
20260502232520 69 276 6.0 11.0 0.00 0.00 0.00 63 1014.6
20260502232021 69 283 6.0 13.0 0.00 0.00 0.00 64 1014.6
20260502231541 69 308 8.0 13.0 0.00 0.00 0.00 64 1014.7
20260502231021 69 300 5.0 10.0 0.00 0.00 0.00 67 1014.7
20260502230521 69 303 5.0 9.0 0.00 0.00 0.00 66 1014.8
20260502230044 69 337 5.0 10.0 0.00 0.00 0.00 66 1014.9
20260502225521 68 238 3.0 11.0 0.00 0.00 0.00 66 1015.1
20260502225021 68 285 6.0 13.0 0.00 0.00 0.00 67 1015.2
20260502224540 68 295 6.0 13.0 0.00 0.00 0.00 66 1015.2
20260502224021 68 288 8.0 11.0 0.00 0.00 0.00 66 1015.3
20260502223522 68 295 7.0 11.0 0.00 0.00 0.00 67 1015.3
20260502223038 68 313 4.0 8.0 0.00 0.00 0.00 67 1015.3
20260502222522 68 301 5.0 8.0 0.00 0.00 0.00 66 1015.5
20260502222021 68 297 6.0 9.0 0.00 0.00 0.00 66 1015.7
20260502221543 68 273 5.0 10.0 0.00 0.00 0.00 65 1015.7
20260502221021 67 295 6.0 13.0 0.00 0.00 0.00 66 1015.8
20260502220522 67 309 7.0 13.0 0.00 0.00 0.00 64 1015.7
20260502220042 67 295 6.0 14.0 0.00 0.00 0.00 64 1015.8
20260502215524 67 318 7.0 14.0 0.00 0.00 0.00 64 1015.9
20260502215020 67 300 7.0 14.0 0.00 0.00 0.00 62 1016.0
20260502214540 67 317 6.0 14.0 0.00 0.00 0.00 65 1016.1
20260502214023 67 250 8.0 14.0 0.00 0.00 0.00 65 1016.1
20260502213520 66 294 8.0 15.0 0.00 0.00 0.00 64 1016.1
20260502213058 66 316 10.0 15.0 0.00 0.00 0.00 65 1016.2
20260502212521 66 291 10.0 15.0 0.00 0.00 0.00 66 1016.2
20260502212022 66 291 8.0 14.0 0.00 0.00 0.00 67 1016.3
20260502211538 66 308 9.0 14.0 0.00 0.00 0.00 67 1016.4
20260502211021 66 293 9.0 12.0 0.00 0.00 0.00 68 1016.3
20260502210521 66 302 8.0 13.0 0.00 0.00 0.00 70 1016.3
20260502210044 65 302 7.0 14.0 0.00 0.00 0.00 72 1016.4
20260502205521 65 293 9.0 14.0 0.00 0.00 0.00 72 1016.5
20260502205024 65 302 9.0 13.0 0.00 0.00 0.00 72 1016.6
20260502204545 65 305 8.0 13.0 0.00 0.00 0.00 74 1016.6
20260502204021 64 288 10.0 15.0 0.00 0.00 0.00 73 1016.7
20260502203524 65 314 9.0 15.0 0.00 0.00 0.00 73 1016.5
20260502203042 65 296 8.0 14.0 0.00 0.00 0.00 72 1016.7
20260502202520 65 276 9.0 12.0 0.00 0.00 0.00 71 1016.6
20260502202020 65 291 8.0 11.0 0.00 0.00 0.00 70 1016.7
20260502201541 65 278 6.0 14.0 0.00 0.00 0.00 72 1016.9
20260502201021 64 296 7.0 14.0 0.00 0.00 0.00 73 1017.0
20260502200521 64 294 9.0 14.0 0.00 0.00 0.00 73 1017.0
20260502200100 64 298 9.0 13.0 0.00 0.00 0.00 74 1017.0
20260502195524 64 302 9.0 16.0 0.00 0.00 0.00 74 1017.0
20260502195020 63 288 9.0 16.0 0.00 0.00 0.00 76 1017.0
20260502194558 63 297 10.0 16.0 0.00 0.00 0.00 74 1017.1
20260502194021 64 301 6.0 10.0 0.00 0.00 0.00 75 1017.1
20260502193521 63 276 7.0 13.0 0.00 0.00 0.00 75 1017.1
20260502193043 64 272 7.0 14.0 0.00 0.00 0.00 77 1017.0
20260502192521 63 275 10.0 14.0 0.00 0.00 0.00 75 1017.0
20260502192023 63 284 7.0 13.0 0.00 0.00 0.00 77 1017.1
20260502191546 63 299 9.0 13.0 0.00 0.00 0.00 76 1017.1
20260502191021 63 301 8.0 12.0 0.00 0.00 0.00 75 1017.1
20260502190525 63 311 8.0 12.0 0.00 0.00 0.00 77 1017.0
20260502190043 63 291 8.0 11.0 0.00 0.00 0.00 76 1017.1
20260502185520 63 281 8.0 14.0 0.00 0.00 0.00 78 1017.2
20260502185021 63 307 7.0 14.0 0.00 0.00 0.00 79 1017.2
20260502184540 62 295 9.0 14.0 0.00 0.00 0.00 79 1017.2
20260502184026 62 301 9.0 13.0 0.00 0.00 0.00 79 1017.3
20260502183522 62 295 9.0 13.0 0.00 0.00 0.00 81 1017.2
20260502183045 62 297 8.0 13.0 0.00 0.00 0.00 79 1017.2
20260502182522 62 322 9.0 13.0 0.00 0.00 0.00 80 1017.2
20260502182022 63 306 8.0 11.0 0.00 0.00 0.00 77 1017.4
20260502181537 63 299 6.0 11.0 0.00 0.00 0.00 76 1017.4
20260502181021 63 302 7.0 11.0 0.00 0.00 0.00 77 1017.4
20260502180523 63 321 6.0 10.0 0.00 0.00 0.00 77 1017.5
20260502170521 60 307 5.0 11.0 0.00 0.00 0.00 83 1017.4
20260502164021 59 311 7.0 12.0 0.00 0.00 0.00 85 1017.9
20260502163521 59 307 7.0 14.0 0.00 0.00 0.00 85 1018.0
20260502163042 59 307 8.0 14.0 0.00 0.00 0.00 86 1018.0
20260502162521 59 302 8.0 14.0 0.00 0.00 0.00 86 1017.9
20260502162021 59 295 9.0 14.0 0.00 0.00 0.00 86 1017.9
20260502161544 58 325 8.0 14.0 0.00 0.00 0.00 87 1018.0
20260502161021 58 330 8.0 15.0 0.00 0.00 0.00 87 1018.0
20260502160523 58 316 9.0 15.0 0.00 0.00 0.00 87 1018.0
20260502152023 55 0 0.0 2.0 0.00 0.00 0.00 92 1018.4
20260502151537 55 0 0.0 3.0 0.00 0.00 0.00 92 1018.2
20260502151023 55 141 1.0 3.0 0.00 0.00 0.00 92 1018.2
20260502150523 55 118 2.0 8.0 0.00 0.00 0.00 92 1018.2
20260502150108 55 354 3.0 10.0 0.00 0.00 0.00 92 1018.1
20260502130523 52 0 0.0 2.0 0.00 0.00 0.00 96 1016.9
20260502123524 52 0 0.0 2.0 0.00 0.00 0.00 95 1016.8
20260502123038 52 0 0.0 0.0 0.00 0.00 0.00 95 1016.8
20260502122523 52 0 0.0 1.0 0.00 0.00 0.00 95 1016.7
20260502122021 52 0 0.0 2.0 0.00 0.00 0.00 95 1016.7
20260502121552 52 0 0.0 2.0 0.00 0.00 0.00 95 1016.6
20260502121024 52 0 0.0 2.0 0.00 0.00 0.00 95 1016.6
20260502120521 52 0 0.0 0.0 0.00 0.00 0.00 94 1016.7
20260502115525 52 0 0.0 0.0 0.00 0.00 0.00 94 1016.6
20260502115021 52 0 0.0 0.0 0.00 0.00 0.00 94 1016.6
20260502114541 52 0 0.0 0.0 0.00 0.00 0.00 94 1016.5
20260502114024 52 0 0.0 0.0 0.00 0.00 0.00 94 1016.5
20260502113521 53 0 0.0 2.0 0.00 0.00 0.00 94 1016.6
20260502113046 53 0 0.0 2.0 0.00 0.00 0.00 94 1016.5
20260502112523 53 116 0.0 2.0 0.00 0.00 0.00 94 1016.5
20260502112026 52 0 0.0 2.0 0.00 0.00 0.00 94 1016.5
20260502111543 52 109 1.0 2.0 0.00 0.00 0.00 95 1016.4
20260502111023 52 0 0.0 1.0 0.00 0.00 0.00 94 1016.5
20260502110523 52 0 0.0 2.0 0.00 0.00 0.00 94 1016.4
20260502110037 52 47 1.0 2.0 0.00 0.00 0.00 94 1016.2
20260502105523 52 23 1.0 2.0 0.00 0.00 0.00 94 1016.2
20260502105027 52 34 0.0 2.0 0.00 0.00 0.00 94 1016.2
20260502104544 52 35 1.0 2.0 0.00 0.00 0.00 94 1016.2
20260502104022 52 6 1.0 2.0 0.00 0.00 0.00 94 1016.2
20260502103521 52 348 1.0 1.0 0.00 0.00 0.00 94 1016.2
20260502103102 52 286 0.0 2.0 0.00 0.00 0.00 93 1016.2
20260502102523 52 286 0.0 2.0 0.00 0.00 0.00 93 1016.3
20260502102021 52 286 1.0 2.0 0.00 0.00 0.00 93 1016.3
20260502101549 52 311 0.0 2.0 0.00 0.00 0.00 93 1016.1
20260502101020 52 311 1.0 2.0 0.00 0.00 0.00 93 1016.2
20260502100523 52 340 1.0 2.0 0.00 0.00 0.00 93 1016.2
20260502091023 53 336 1.0 2.0 0.00 0.00 0.00 91 1016.3
20260502090522 53 43 1.0 3.0 0.00 0.00 0.00 91 1016.2
20260502071025 56 338 0.0 2.0 0.00 0.00 0.00 87 1015.7
20260502070524 56 0 0.0 4.0 0.00 0.00 0.00 87 1015.7
20260502070040 56 272 0.0 5.0 0.00 0.00 0.00 86 1015.7
20260502065524 56 266 3.0 5.0 0.00 0.00 0.00 86 1015.6
20260502065022 56 275 2.0 4.0 0.00 0.00 0.00 87 1015.4
20260502064542 56 295 1.0 3.0 0.00 0.00 0.00 87 1015.4
20260502064023 56 303 1.0 5.0 0.00 0.00 0.00 88 1015.4
20260502063523 56 0 1.0 5.0 0.00 0.00 0.00 88 1015.5
20260502063054 56 86 3.0 5.0 0.00 0.00 0.00 89 1015.5
20260502062523 55 98 1.0 2.0 0.00 0.00 0.00 89 1015.4
20260502062026 56 63 1.0 3.0 0.00 0.00 0.00 89 1015.4
20260502061542 56 84 2.0 4.0 0.00 0.00 0.00 87 1015.3
20260502061024 56 41 0.0 4.0 0.00 0.00 0.00 87 1015.4
20260502060520 56 295 2.0 4.0 0.00 0.00 0.00 87 1015.4
20260502060041 56 271 2.0 3.0 0.00 0.00 0.00 87 1015.5
20260502055524 56 254 1.0 3.0 0.00 0.00 0.00 88 1015.5
20260502055024 56 226 0.0 3.0 0.00 0.00 0.00 88 1015.4
20260502054552 56 249 1.0 5.0 0.00 0.00 0.00 89 1015.4
20260502054023 56 276 2.0 5.0 0.00 0.00 0.00 89 1015.4
20260502053523 56 243 1.0 4.0 0.00 0.00 0.00 90 1015.5
20260502053046 55 233 1.0 4.0 0.00 0.00 0.00 90 1015.5
20260502052521 55 255 1.0 2.0 0.00 0.00 0.00 90 1015.5
20260502052028 55 234 0.0 1.0 0.00 0.00 0.00 89 1015.5
20260502051541 55 0 0.0 1.0 0.00 0.00 0.00 89 1015.3
20260502051020 55 0 0.0 2.0 0.00 0.00 0.00 89 1015.3
20260502050524 56 0 0.0 2.0 0.00 0.00 0.00 89 1015.3
20260502050037 56 224 0.0 2.0 0.00 0.00 0.00 88 1015.3
20260502045523 56 0 0.0 2.0 0.00 0.00 0.00 88 1015.3
20260502045023 56 226 0.0 2.0 0.00 0.00 0.00 88 1015.4
20260502044542 56 266 1.0 2.0 0.00 0.00 0.00 88 1015.4
20260502044024 57 180 0.0 2.0 0.00 0.00 0.00 88 1015.3
20260502043528 57 105 2.0 2.0 0.00 0.00 0.00 87 1015.3
20260502043049 57 67 1.0 2.0 0.00 0.00 0.00 87 1015.2
20260502042524 57 267 0.0 1.0 0.00 0.00 0.00 86 1015.1
20260502042022 57 266 0.0 1.0 0.00 0.00 0.00 85 1015.2
20260502041540 57 269 1.0 1.0 0.00 0.00 0.00 85 1015.2